Regional Weather Roundup
Issued by NWS

Home | Current Version | Previous Version | Graphics & Text | Print | Product List | Glossary On
Versions: 1 2 3 4 5 6 7 8 9 10 11 12 13 14 15 16 17 18 19 20 21 22 23 24 25 26 27 28 29 30 31 32 33 34 35 36 37 38 39 40 41 42 43 44 45 46 47 48 49 50
000
ASUS43 KDTX 231210
RWRMI
MICHIGAN HOURLY REGIONAL WEATHER ROUNDUP
NATIONAL WEATHER SERVICE DETROIT/PONTIAC MI
800 AM EDT MON APR 23 2018

NOTE: "FAIR" INDICATES FEW OR NO CLOUDS BELOW 12,000 FEET WITH NO
SIGNIFICANT WEATHER AND/OR OBSTRUCTION TO VISIBILITY.

MIZ047>049-052>055-059>063-066>070-074>076-081>083-231300-
SOUTHEAST LOWER MICHIGAN

CITY           SKY/WX    TMP DP  RH WIND       PRES   REMARKS
ADRIAN         FAIR      45  29  53 E9        30.25R
6HR MIN TEMP:  39; 6HR MAX TEMP:  45;

ALMA           FAIR      39  32  76 N3        30.32R
6HR MIN TEMP:  33; 6HR MAX TEMP:  39;

ANN ARBOR      FAIR      46  29  51 N9        30.25F
BAD AXE        FAIR      46  21  36 E3        30.34R
6HR MIN TEMP:  36; 6HR MAX TEMP:  46;

CARO           FAIR      40  26  55 E5        30.30S
DETROIT CITY   FAIR      45  32  60 E7        30.29R
6HR MIN TEMP:  40; 6HR MAX TEMP:  45;

DETROIT        PTSUNNY   46  29  51 NE8       30.26F
6HR MIN TEMP:  42; 6HR MAX TEMP:  47;

FLINT          FAIR      41  27  57 E6        30.30R
6HR MIN TEMP:  33; 6HR MAX TEMP:  41;

GROSSE ILE     FAIR      44  32  64 E8        30.25S
6HR MIN TEMP:  40; 6HR MAX TEMP:  44;

HILLSDALE      FAIR      45  27  49 E7        30.22R
HOWELL         FAIR      45  27  50 E7        30.27S
6HR MIN TEMP:  34; 6HR MAX TEMP:  45;


CITY           SKY/WX    TMP DP  RH WIND       PRES   REMARKS
JACKSON        FAIR      42  29  59 NE7       30.24F
6HR MIN TEMP:  36; 6HR MAX TEMP:  42;

LAMBERTVILLE   FAIR      47  36  66 E8        30.24R
6HR MIN TEMP:  44; 6HR MAX TEMP:  48;

LANSING        FAIR      40  29  64 NE3       30.28R
6HR MIN TEMP:  36; 6HR MAX TEMP:  43;

LAPEER         FAIR      44  26  49 CALM      30.30S
6HR MIN TEMP:  31; 6HR MAX TEMP:  44;

MASON          FAIR      43  25  48 NE3       30.27S
6HR MIN TEMP:  39; 6HR MAX TEMP:  44;

MONROE         FAIR      44  30  58 E5        30.24R
6HR MIN TEMP:  39; 6HR MAX TEMP:  44;

MT. CLEMENS    MOSUNNY   46  31  57 NE6       30.28R
6HR MIN TEMP:  35; 6HR MAX TEMP:  46;

PONTIAC        PTSUNNY   47  26  44 E8        30.28R
6HR MIN TEMP:  38; 6HR MAX TEMP:  47;

PORT HOPE        N/A     41  31  67 E7        30.33R
6HR MIN TEMP:  32; 6HR MAX TEMP:  41;

PORT HURON     FAIR      43  28  56 E5        30.32R
TRI CITIES     FAIR      40  34  79 NE7       30.32R
6HR MIN TEMP:  34; 6HR MAX TEMP:  41;

MIDLAND        FAIR      34  32  92 CALM      30.32S
6HR MIN TEMP:  28; 6HR MAX TEMP:  37;

TROY           FAIR      46  24  41 NE7       30.31R
SAGINAW HB     FAIR      37  32  81 N3        30.31R
$$
MIZ043>046-050>051-056>058-064>065-071>073-077>080-231300-
SOUTHWEST LOWER MICHIGAN

CITY           SKY/WX    TMP DP  RH WIND       PRES   REMARKS
BATTLE CREEK   FAIR      44  25  47 NE9       30.24S
6HR MIN TEMP:  41; 6HR MAX TEMP:  46;

BENTON HARBOR  FAIR      46  24  42 NE8       30.22S
6HR MIN TEMP:  41; 6HR MAX TEMP:  46;

BIG RAPIDS     FAIR      36  29  75 CALM      30.31S
6HR MIN TEMP:  29; 6HR MAX TEMP:  43;

COLDWATER      FAIR      43  26  52 E3        30.22R
6HR MIN TEMP:  38; 6HR MAX TEMP:  45;

FREMONT        FAIR      42  22  46 NE8       30.29R
6HR MIN TEMP:  38; 6HR MAX TEMP:  45;

HOLLAND        FAIR      44  27  51 NE6       30.26S
6HR MIN TEMP:  37; 6HR MAX TEMP:  44;

GRAND RAPIDS   PTSUNNY   42  27  55 NE9       30.27R
6HR MIN TEMP:  37; 6HR MAX TEMP:  44;

IONIA          FAIR      40  27  59 NE9       30.28S WCI  34
6HR MIN TEMP:  37; 6HR MAX TEMP:  43;

KALAMAZOO      FAIR      44  25  47 NE6       30.24S
6HR MIN TEMP:  40; 6HR MAX TEMP:  47;

LUDINGTON      FAIR      37  30  75 E5        30.31R WCI  34
6HR MIN TEMP:  29; 6HR MAX TEMP:  37;

MARSHALL       FAIR      42  24  50 NE5       30.23F
6HR MIN TEMP:  38; 6HR MAX TEMP:  42;

MOUNT PLEASANT FAIR      39  29  66 N3        30.32R
6HR MIN TEMP:  35; 6HR MAX TEMP:  42;

MUSKEGON       PTSUNNY   43  27  53 NE8       30.28S
6HR MIN TEMP:  38; 6HR MAX TEMP:  46;

SOUTH HAVEN    FAIR      43  24  47 E7        30.23S
$$
MIZ016>042-231300-
NORTHERN LOWER MICHIGAN

CITY           SKY/WX    TMP DP  RH WIND       PRES   REMARKS
ALPENA         FAIR      28  26  92 CALM      30.36S
6HR MIN TEMP:  24; 6HR MAX TEMP:  29;

BEAVER ISLAND  FAIR      46  21  37 CALM      30.33S
6HR MIN TEMP:  43; 6HR MAX TEMP:  46;

BELLAIRE       FAIR      30  28  89 CALM      30.34S
6HR MIN TEMP:  27; 6HR MAX TEMP:  30;

CADILLAC       FAIR      32  27  79 CALM      30.31F
CHARLEVOIX     FAIR      38  24  58 E3        30.36S
6HR MIN TEMP:  32; 6HR MAX TEMP:  38;

FRANKFORT      FAIR      36  30  78 CALM      30.32S
GAYLORD        FAIR      33  22  63 CALM      30.33S
6HR MIN TEMP:  29; 6HR MAX TEMP:  37;

GRAYLING       FAIR      29  22  75 CALM      30.34R
6HR MIN TEMP:  20; 6HR MAX TEMP:  29;

HARBOR SPRINGS FAIR      33  27  79 E6        30.34R WCI  28
HOUGHTON LAKE  FAIR      32  28  85 CALM      30.34R
6HR MIN TEMP:  27; 6HR MAX TEMP:  36;

MANISTEE       FAIR      36  32  85 E7        30.31F WCI  30
OSCODA         FAIR      32  25  73 CALM      30.36R
6HR MIN TEMP:  23; 6HR MAX TEMP:  32;

PELLSTON       FAIR      31  25  78 CALM      30.35R
6HR MIN TEMP:  24; 6HR MAX TEMP:  31;

ROGERS CITY    FAIR      42  19  40 CALM      30.36S
TRAVERSE CITY  FAIR      34  28  79 CALM      30.33R
6HR MIN TEMP:  31; 6HR MAX TEMP:  36;

$$
MIZ007>008-015-231300-
EASTERN UPPER MICHIGAN

CITY           SKY/WX    TMP DP  RH WIND       PRES   REMARKS
KINROSS        FAIR      37  22  54 SE9       30.34R WCI  30
6HR MIN TEMP:  31; 6HR MAX TEMP:  38;

MACKINAC ISLAN FAIR      44  18  34 S7        30.33S
6HR MIN TEMP:  40; 6HR MAX TEMP:  44;

NEWBERRY       FAIR      40  21  46 S12       30.31S WCI  33
6HR MIN TEMP:  35; 6HR MAX TEMP:  41;

S. S. MARIE    FAIR      36  24  62 E3        30.34R
6HR MIN TEMP:  33; 6HR MAX TEMP:  38;

MUNISING         N/A     39  21  48 S8        30.29R WCI  33
6HR MIN TEMP:  33; 6HR MAX TEMP:  41;

$$
MIZ004>006-011>014-085-231300-
CENTRAL UPPER MICHIGAN

CITY           SKY/WX    TMP DP  RH WIND       PRES   REMARKS
MANISTIQUE     FAIR      35  33  94 SE3       30.31S
6HR MIN TEMP:  27; 6HR MAX TEMP:  35;

ESCANABA       FAIR      31  27  85 CALM      30.32R
6HR MIN TEMP:  24; 6HR MAX TEMP:  31;

MENOMINEE      FAIR      31  27  85 CALM      30.32R
6HR MIN TEMP:  28; 6HR MAX TEMP:  33;

SAWYER-GWINN   SUNNY     28  19  69 CALM      30.29R
$$
MIZ001>003-009>011-084-231300-
WESTERN UPPER MICHIGAN

CITY           SKY/WX    TMP DP  RH WIND       PRES   REMARKS
IRON MOUNTAIN  FAIR      29  23  78 CALM      30.28S
6HR MIN TEMP:  24; 6HR MAX TEMP:  31;

HOUGHTON       FAIR      39  19  44 W3        30.23S
6HR MIN TEMP:  36; 6HR MAX TEMP:  46;

COPPER HARBOR    N/A     45  23  42 VRB3      30.22S
6HR MIN TEMP:  41; 6HR MAX TEMP:  47;

IRONWOOD       FAIR      43  25  49 SW7       30.26S
6HR MIN TEMP:  37; 6HR MAX TEMP:  47;

$$

ABBREVIATIONS USED IN REMARKS
   TC - TEMPERATURE IN CELSIUS
  WCI - WIND CHILL INDEX
   HX - HEAT INDEX
  VSB - VISIBILITY





USA.gov is the U.S. government's official web portal to all federal, state and local government web resources and services.